�������C�����ː����j�^�v���󋵏��
Date,Time,Cs137(Bq/L),Cs134(Bq/L),�S��(Bq/L)
2021/02/22,00:00,-,-,11
2021/02/22,00:10,-,-,11
2021/02/22,00:20,-,-,11
2021/02/22,00:30,-,-,15
2021/02/22,00:40,-,-,17
2021/02/22,00:50,-,-,17
2021/02/22,01:00,-,-,16
2021/02/22,01:10,-,-,17
2021/02/22,01:20,-,-,17
2021/02/22,01:30,-,-,16
2021/02/22,01:40,-,-,15
2021/02/22,01:50,-,-,13
2021/02/22,02:00,-,-,13
2021/02/22,02:10,-,-,12
2021/02/22,02:20,-,-,10
2021/02/22,02:30,-,-,12
2021/02/22,02:40,-,-,13
2021/02/22,02:50,-,-,14
2021/02/22,03:00,-,-,14
2021/02/22,03:10,-,-,15
2021/02/22,03:20,-,-,13
2021/02/22,03:30,-,-,11
2021/02/22,03:40,-,-,ND
2021/02/22,03:50,-,-,ND
2021/02/22,04:00,-,-,ND
2021/02/22,04:10,-,-,8.8
2021/02/22,04:20,-,-,11
2021/02/22,04:30,-,-,12
2021/02/22,04:40,-,-,13
2021/02/22,04:50,-,-,15
2021/02/22,05:00,-,-,16
2021/02/22,05:10,-,-,9.6
2021/02/22,05:20,-,-,12
2021/02/22,05:30,-,-,13
2021/02/22,05:40,-,-,14
2021/02/22,05:50,-,-,13
2021/02/22,06:00,-,-,15
2021/02/22,06:10,-,-,19
2021/02/22,06:20,-,-,17
2021/02/22,06:30,-,-,13
2021/02/22,06:40,-,-,14
2021/02/22,06:50,-,-,15
2021/02/22,07:00,-,-,14
2021/02/22,07:10,-,-,11
2021/02/22,07:20,-,-,12
2021/02/22,07:30,-,-,13
2021/02/22,07:40,-,-,13
2021/02/22,07:50,-,-,13
2021/02/22,08:00,-,-,14
2021/02/22,08:10,-,-,14
2021/02/22,08:20,-,-,13
2021/02/22,08:30,-,-,12
2021/02/22,08:40,-,-,11
2021/02/22,08:50,-,-,13
2021/02/22,09:00,-,-,11
2021/02/22,09:10,-,-,12
2021/02/22,09:20,-,-,12
2021/02/22,09:30,-,-,11
2021/02/22,09:40,-,-,12
2021/02/22,09:50,-,-,9.3
2021/02/22,10:00,-,-,9.3
2021/02/22,10:10,-,-,ND
2021/02/22,10:20,-,-,10
2021/02/22,10:30,-,-,10
2021/02/22,10:40,-,-,9.2
2021/02/22,10:50,-,-,13
2021/02/22,11:00,-,-,15
2021/02/22,11:10,-,-,17
2021/02/22,11:20,-,-,16
2021/02/22,11:30,-,-,17
2021/02/22,11:40,-,-,17
2021/02/22,11:50,-,-,16
2021/02/22,12:00,-,-,14
2021/02/22,12:10,-,-,13
2021/02/22,12:20,-,-,14
2021/02/22,12:30,-,-,15
2021/02/22,12:40,-,-,17
2021/02/22,12:50,-,-,16
2021/02/22,13:00,-,-,16
2021/02/22,13:10,-,-,17
2021/02/22,13:20,-,-,17
2021/02/22,13:30,-,-,18
2021/02/22,13:40,-,-,18
2021/02/22,13:50,-,-,15
2021/02/22,14:00,-,-,16
2021/02/22,14:10,-,-,14
2021/02/22,14:20,-,-,13
2021/02/22,14:30,-,-,12
2021/02/22,14:40,-,-,13
2021/02/22,14:50,-,-,14
2021/02/22,15:00,-,-,13
2021/02/22,15:10,-,-,13
2021/02/22,15:20,-,-,13
2021/02/22,15:30,-,-,13
2021/02/22,15:40,-,-,13
2021/02/22,15:50,-,-,13
2021/02/22,16:00,-,-,15
2021/02/22,16:10,-,-,15
2021/02/22,16:20,-,-,13
2021/02/22,16:30,-,-,13
2021/02/22,16:40,-,-,9.9
2021/02/22,16:50,-,-,9.0
2021/02/22,17:00,-,-,8.9
2021/02/22,17:10,-,-,ND
2021/02/22,17:20,-,-,11
2021/02/22,17:30,-,-,13
2021/02/22,17:40,-,-,14
2021/02/22,17:50,-,-,15
2021/02/22,18:00,-,-,14
2021/02/22,18:10,-,-,14
2021/02/22,18:20,-,-,14
2021/02/22,18:30,-,-,12
2021/02/22,18:40,-,-,12
2021/02/22,18:50,-,-,11
2021/02/22,19:00,-,-,9.6
2021/02/22,19:10,-,-,10
2021/02/22,19:20,-,-,9.9
2021/02/22,19:30,-,-,9.7
2021/02/22,19:40,-,-,9.0
2021/02/22,19:50,-,-,12
2021/02/22,20:00,-,-,14
2021/02/22,20:10,-,-,14
2021/02/22,20:20,-,-,14
2021/02/22,20:30,-,-,13
2021/02/22,20:40,-,-,18
2021/02/22,20:50,-,-,14
2021/02/22,21:00,-,-,13
2021/02/22,21:10,-,-,14
2021/02/22,21:20,-,-,12
2021/02/22,21:30,-,-,15
2021/02/22,21:40,-,-,10
2021/02/22,21:50,-,-,11
2021/02/22,22:00,-,-,13
2021/02/22,22:10,-,-,14
2021/02/22,22:20,-,-,14
2021/02/22,22:30,-,-,11
2021/02/22,22:40,-,-,14
2021/02/22,22:50,-,-,14
2021/02/22,23:00,-,-,14
2021/02/22,23:10,-,-,13
2021/02/22,23:20,-,-,16
2021/02/22,23:30,-,-,18
2021/02/22,23:40,-,-,17
2021/02/22,23:50,-,-,17
